Location: Chuathbaluk
(61.5726°N, 159.2454°W)
Time: 00:55:10
(UTC+00:00)

Oscar 19 - Visible Passes

Search period start: 24 January 2021 00:00
Search period end: 03 February 2021 00:00
Orbit: 774 x 789 km, 98.7° (Epoch: 23 January)

Date Brightness Start Highest point End Pass type
(mag) Time Alt. Az. Time Alt. Az. Time Alt. Az.
24 Jan 13.4 12:41:59 10° NNE 12:42:52 14° NE 12:42:52 14° NE visible
24 Jan 12.4 14:21:13 10° NNE 14:23:25 26° N 14:23:25 26° N visible
24 Jan 12.1 16:01:01 10° N 16:03:59 21° NNW 16:03:59 21° NNW visible
24 Jan 12.7 17:41:21 10° N 17:42:39 11° NNW 17:43:58 10° NNW visible
25 Jan 13.6 12:10:23 10° NE 12:10:37 11° NE 12:10:37 11° NE visible
25 Jan 12.6 13:49:13 10° NNE 13:51:10 23° NNE 13:51:10 23° NNE visible
25 Jan 12.1 15:28:53 10° N 15:31:43 25° NNW 15:31:43 25° NNW visible
25 Jan 12.5 17:08:57 10° N 17:11:19 13° NNW 17:12:17 13° NW visible
26 Jan 12.9 13:17:17 10° NNE 13:18:55 20° NNE 13:18:55 20° NNE visible
26 Jan 12.1 14:56:47 10° NNE 14:59:28 28° N 14:59:28 28° N visible
26 Jan 12.3 16:36:43 10° N 16:39:55 17° NW 16:40:01 17° NW visible
27 Jan 13.2 12:45:28 10° NNE 12:46:39 16° NE 12:46:39 16° NE visible
27 Jan 12.2 14:24:44 10° NNE 14:27:13 28° N 14:27:13 28° N visible
27 Jan 12.1 16:04:33 10° N 16:07:45 21° NNW 16:07:45 21° NNW visible
27 Jan 12.7 17:44:57 10° N 17:46:07 11° NNW 17:47:15 10° NNW visible
28 Jan 13.5 12:13:51 10° NE 12:14:24 12° NE 12:14:24 12° NE visible
28 Jan 12.5 13:52:44 10° NNE 13:54:57 26° NNE 13:54:57 26° NNE visible
28 Jan 12.0 15:32:25 10° N 15:35:31 26° NNW 15:35:31 26° NNW visible
28 Jan 12.5 17:12:30 10° N 17:14:47 13° NNW 17:16:04 12° NW visible
29 Jan 12.8 13:20:48 10° NNE 13:22:42 22° NNE 13:22:42 22° NNE visible
29 Jan 11.9 15:00:19 10° NNE 15:03:16 30° N 15:03:16 30° N visible
29 Jan 12.3 16:40:16 10° N 16:43:22 16° NNW 16:43:49 16° NW visible
30 Jan 13.1 12:48:58 10° NNE 12:50:27 18° NE 12:50:27 18° NE visible
30 Jan 12.0 14:28:15 10° NNE 14:31:01 31° N 14:31:01 31° N visible
30 Jan 12.1 16:08:05 10° N 16:11:34 21° NW 16:11:34 21° NW visible
30 Jan 12.7 17:48:34 10° N 17:49:33 11° NNW 17:50:32 10° NNW visible
31 Jan 13.4 12:17:19 10° NE 12:18:12 14° NE 12:18:12 14° NE visible
31 Jan 12.3 13:56:15 10° NNE 13:58:46 29° NNE 13:58:46 29° NNE visible
31 Jan 11.9 15:35:57 10° N 15:39:19 26° NNW 15:39:19 26° NNW visible
31 Jan 12.5 17:16:04 10° N 17:18:13 13° NNW 17:19:52 11° NW visible
01 Feb 12.6 13:24:19 10° NNE 13:26:31 25° NNE 13:26:31 25° NNE visible
01 Feb 11.8 15:03:50 10° NNE 15:07:04 32° NNW 15:07:04 32° NNW visible
01 Feb 12.3 16:43:48 10° N 16:46:50 16° NNW 16:47:38 15° NW visible
02 Feb 12.9 12:52:27 10° NNE 12:54:17 20° NE 12:54:17 20° NE visible
02 Feb 11.8 14:31:46 10° NNE 14:34:49 34° N 14:34:49 34° N visible
02 Feb 12.1 16:11:37 10° N 16:15:21 21° NW 16:15:23 21° NW visible
02 Feb 12.7 17:52:13 10° N 17:52:59 10° NNW 17:53:45 10° NNW visible
